[[{"header":{"parameterUnit":"m.s-1","parameterCategory":1,"la1":30.2991,"la2":30.254,"lo1":-89.0895,"lo2":-89.0444,"dy":0.0017,"dx":0.0017,"nx":28,"ny":28,"refTime":"2025-02-26T03:00:00:Z","depth":0,"parameterNumber":2,"parameterNumberName":"U-component_of_WINDS"},"data":[0,0,0,0,0,0,0,0,0,0,0,0,0,0,0,0,0,0,0,0,0,0,0,0,0,0,0,0,0,0,0,0,0,0,0,0,0,0,0,0,0,0,0,0,0,0,0,0,0,0,0,0,0,0,0,0,0,0,2.4453,2.4453,0,2.447,2.447,2.4471,2.4527,2.4528,2.4529,2.453,2.4549,2.4548,2.4547,0,0,0,0,0,0,0,0,0,0,0,0,0,2.4471,2.447,2.4453,2.4453,2.4453,2.447,2.447,2.4471,2.4526,2.4528,2.4529,2.4531,2.4549,2.4548,2.4547,0,0,0,0,0,0,0,0,0,0,0,0,0,2.4473,2.447,2.4453,2.4483,2.4486,2.447,2.447,2.4471,2.4526,2.4528,2.453,2.4532,2.4549,2.4548,2.4547,2.4503,0,0,2.4544,2.4544,0,0,0,0,0,0,0,0,2.4473,2.4472,2.4479,2.4481,2.4484,2.4498,2.4483,2.4482,2.4526,2.4511,2.453,2.4532,2.453,2.4531,2.453,2.4504,2.4505,2.4544,2.4543,2.4543,2.4543,0,0,0,0,0,0,0,2.4472,2.4472,2.446,2.4479,2.4482,2.4497,2.4499,2.4483,2.451,2.4512,2.4516,2.4518,2.4532,2.4531,2.4531,2.4505,2.4544,2.4543,2.4542,2.4542,2.4447,2.4445,0,0,0,0,0,0,2.4468,2.4471,2.4459,2.446,2.4483,2.4495,2.4498,2.4492,2.451,2.4515,2.4516,2.452,2.4532,2.4532,2.4532,2.4484,2.4543,2.4542,2.4541,2.4449,2.4447,2.4445,0,0,0,0,0,0,2.4468,2.4466,2.4459,2.4467,2.4467,2.4493,2.4486,2.4491,2.449,2.4513,2.4518,2.451,2.4533,2.4533,2.4511,2.4485,2.4541,2.4541,2.4451,2.4448,2.4446,2.4386,0,0,0,0,0,0,2.4468,2.4466,2.4449,2.4466,2.4466,2.4436,2.4484,2.449,2.4488,2.4494,2.4508,2.4513,2.4535,2.4512,2.451,2.4485,2.454,2.4454,2.445,2.4447,2.439,2.4381,2.4373,0,0,0,0,0,2.4469,2.4431,2.4448,2.4446,2.4446,2.4434,2.4435,2.4461,2.4486,2.4469,2.4485,2.4512,2.4488,2.4509,2.4507,2.4481,2.4456,2.4451,2.4447,2.4394,2.4383,2.4374,0,0,0,0,0,0,2.4409,2.4434,2.4452,2.4419,2.4424,2.4444,2.4424,2.4448,2.4446,2.4452,2.4484,2.4487,2.446,2.4468,2.4491,2.4441,2.4477,2.4472,2.4437,2.4427,2.4418,2.4417,2.4539,0,0,0,0,0,2.4393,2.4381,2.4403,2.4371,2.4373,2.4398,2.4394,2.4414,2.4421,2.4423,2.4437,2.4443,2.4437,2.4432,2.4428,2.4392,2.4397,2.4373,2.4365,2.4358,2.4353,2.4337,2.4328,2.4431,2.4431,2.4431,0,0,2.4357,2.4369,2.436,2.436,2.4366,2.4355,2.4399,2.4385,2.4377,2.4421,2.4401,2.4411,2.442,2.4391,2.4379,2.4397,2.4326,2.4352,2.4347,2.4346,2.4332,2.4322,2.4313,2.4428,2.4428,2.4429,0,0,2.4288,2.4295,2.427,2.4276,2.4286,2.4303,2.4297,2.4313,2.4322,2.4302,2.4336,2.4327,2.4316,2.4321,2.4323,2.4257,2.4284,2.4255,2.4212,2.4196,2.4188,2.4181,2.4159,2.4151,2.4251,2.425,2.425,0,2.4243,2.4226,2.4255,2.4238,2.4238,2.4278,2.4255,2.4259,2.4266,2.4266,2.4286,2.4274,2.4283,2.4256,2.4241,2.424,2.4235,2.4254,2.4186,2.418,2.4173,2.4153,2.4145,2.4247,2.4247,2.4248,2.4248,0,2.4172,2.416,2.4139,2.4146,2.4143,2.4123,2.415,2.4144,2.4164,2.4179,2.416,2.4172,2.4172,2.4167,2.4186,2.4144,2.4155,2.418,2.4217,2.416,2.4141,2.4134,2.4242,2.4243,2.4244,2.4245,0,0,2.4064,2.4089,2.4081,2.4085,2.4099,2.4091,2.4074,2.4074,2.4069,2.4073,2.406,2.405,2.4074,2.4076,2.4096,2.4082,2.4032,2.4109,2.411,2.4096,2.3989,2.397,2.3961,2.4049,2.4048,2.4047,2.3988,0,2.4,2.3971,2.3997,2.3964,2.3954,2.3993,2.3978,2.3986,2.4,2.3995,2.4011,2.4004,2.4035,2.4037,2.4024,2.404,2.4011,2.4045,2.4039,2.4038,2.4036,2.3951,2.3931,2.3875,2.3981,2.398,2.3979,0,2.392,2.3921,2.3887,2.3906,2.3903,2.3889,2.3892,2.3886,2.3896,2.3908,2.391,2.3936,2.3921,2.3956,2.3938,2.396,2.396,2.3968,2.3966,2.3967,2.4006,2.3951,2.3858,2.385,2.3968,2.3969,2.3969,0,2.3847,2.384,2.382,2.3822,2.3843,2.3832,2.384,2.3853,2.3852,2.3855,2.3855,2.3856,2.3857,2.3857,2.3883,2.3906,2.3862,2.3899,2.3872,2.3872,2.3862,2.3862,2.3769,2.3859,2.3859,2.386,2.386,0,2.3772,2.375,2.3788,2.3775,2.3752,2.3783,2.3759,2.3772,2.3782,2.3774,2.3807,2.3798,2.3832,2.3827,2.3847,2.383,2.383,2.384,2.3846,2.3838,2.3836,2.3838,2.3843,2.3857,2.3858,2.3858,2.3859,0,2.3687,2.3711,2.3691,2.3713,2.3718,2.37,2.3719,2.3709,2.3726,2.3715,2.3714,2.3741,2.3737,2.3763,2.3763,2.3777,2.3751,2.3763,2.3747,2.3752,2.3725,2.3727,2.363,2.3619,2.3715,2.3714,2.3713,0,2.3638,2.3623,2.3643,2.364,2.3646,2.364,2.364,2.367,2.3668,2.368,2.3669,2.3668,2.3669,2.3662,2.3682,2.3683,2.3696,2.3662,2.3696,2.3689,2.3697,2.3698,2.3698,2.3655,2.3653,2.3652,2.3652,0,2.355,2.3563,2.3561,2.3564,2.3562,2.3566,2.3571,2.3567,2.36,2.3597,2.3593,2.3594,2.3596,2.3595,2.3601,2.3611,2.3637,2.3641,2.3635,2.3627,2.3619,2.3625,2.3729,2.3643,2.3644,2.3644,2.3645,2.3645,2.3483,2.3471,2.3484,2.3482,2.3489,2.3494,2.3487,2.3503,2.3501,2.3505,2.3523,2.3517,2.353,2.354,2.3547,2.3544,2.3561,2.3552,2.355,2.3548,2.3543,2.3619,2.3545,2.3545,2.3546,2.3546,2.3546,0,2.3397,2.3408,2.3405,2.3413,2.3411,2.3436,2.3444,2.3442,2.3436,2.3445,2.3446,2.3444,2.3444,2.3464,2.3467,2.3461,2.3473,2.346,2.3462,2.3464,2.3528,2.3533,2.3451,2.3451,2.3451,2.3451,2.3451,2.3451,2.3353,2.3336,2.335,2.3338,2.3349,2.3344,2.3347,2.3352,2.336,2.3356,2.3356,2.337,2.3384,2.3389,2.339,2.3397,2.3397,2.338,2.3391,2.345,2.3459,2.3468,2.3473,2.338,2.338,2.3328,2.3327,2.3327]},{"header":{"parameterUnit":"m.s-1","parameterCategory":1,"la1":30.2991,"la2":30.254,"lo1":-89.0895,"lo2":-89.0444,"dy":0.0017,"dx":0.0017,"nx":28,"ny":28,"refTime":"2025-02-26T03:00:00:Z","depth":0,"parameterNumber":3,"parameterNumberName":"V-component_of_WINDS"},"data":[0,0,0,0,0,0,0,0,0,0,0,0,0,0,0,0,0,0,0,0,0,0,0,0,0,0,0,0,0,0,0,0,0,0,0,0,0,0,0,0,0,0,0,0,0,0,0,0,0,0,0,0,0,0,0,0,0,0,1.2276,1.2276,0,1.2321,1.2321,1.2322,1.2276,1.2274,1.2272,1.2271,1.2318,1.2321,1.2324,0,0,0,0,0,0,0,0,0,0,0,0,0,1.2149,1.2151,1.2276,1.2276,1.2277,1.2321,1.2321,1.2322,1.2276,1.2274,1.2272,1.227,1.2317,1.232,1.2324,0,0,0,0,0,0,0,0,0,0,0,0,0,1.22,1.2152,1.2275,1.2259,1.2258,1.232,1.2321,1.2322,1.2277,1.2274,1.2271,1.2269,1.2316,1.232,1.2324,1.2405,0,0,1.2338,1.234,0,0,0,0,0,0,0,0,1.2197,1.2204,1.2261,1.226,1.2259,1.229,1.2294,1.235,1.2277,1.227,1.2271,1.2267,1.2311,1.2315,1.233,1.2408,1.241,1.2338,1.2341,1.2343,1.2344,0,0,0,0,0,0,0,1.2193,1.2202,1.2293,1.2262,1.2261,1.2249,1.2253,1.2304,1.2305,1.227,1.2267,1.2273,1.231,1.2326,1.2331,1.241,1.2338,1.2342,1.2345,1.2346,1.2552,1.2555,0,0,0,0,0,0,1.2192,1.22,1.2292,1.2295,1.2221,1.2254,1.2258,1.2283,1.2304,1.2305,1.2275,1.227,1.232,1.2326,1.2332,1.2425,1.2343,1.2347,1.2349,1.2549,1.2553,1.2556,0,0,0,0,0,0,1.2189,1.22,1.229,1.2246,1.2257,1.2259,1.2286,1.2285,1.2301,1.2308,1.2308,1.2291,1.2318,1.2326,1.2386,1.2426,1.2349,1.2353,1.2546,1.255,1.2554,1.2614,0,0,0,0,0,0,1.2186,1.22,1.2231,1.2247,1.2259,1.2344,1.2289,1.2288,1.2308,1.2303,1.2323,1.2324,1.2316,1.238,1.2391,1.2431,1.2356,1.2542,1.2548,1.2553,1.2608,1.262,1.2629,0,0,0,0,0,1.2181,1.2247,1.2233,1.2244,1.2299,1.2347,1.2354,1.2343,1.2312,1.2343,1.2346,1.2323,1.242,1.2387,1.2398,1.244,1.254,1.2546,1.2552,1.2604,1.2617,1.2629,0,0,0,0,0,0,1.2238,1.2249,1.2234,1.2307,1.2326,1.2339,1.2378,1.2359,1.2388,1.2382,1.2368,1.2373,1.2436,1.2444,1.2407,1.2518,1.2475,1.2484,1.251,1.2523,1.2533,1.2529,1.236,0,0,0,0,0,1.2258,1.2296,1.2305,1.2369,1.2379,1.2377,1.2398,1.2387,1.2407,1.2415,1.2423,1.2443,1.2477,1.2501,1.2534,1.2609,1.2611,1.2644,1.2654,1.2663,1.267,1.2708,1.2721,1.2577,1.2577,1.2576,0,0,1.2302,1.2313,1.2338,1.238,1.2394,1.2432,1.2384,1.2428,1.2456,1.2422,1.2478,1.2485,1.2506,1.2574,1.2604,1.2583,1.2711,1.2671,1.2678,1.2681,1.2715,1.2729,1.2741,1.2581,1.258,1.2579,0,0,1.2401,1.2414,1.2467,1.2481,1.2501,1.2498,1.2511,1.2526,1.2529,1.2585,1.2559,1.2592,1.2653,1.2668,1.2683,1.2784,1.2762,1.2795,1.2849,1.2885,1.2897,1.2907,1.294,1.2952,1.2802,1.2803,1.2803,0,1.2453,1.251,1.2497,1.2541,1.2559,1.2528,1.258,1.2594,1.2625,1.2638,1.2613,1.2686,1.2698,1.2767,1.2791,1.2806,1.2818,1.2792,1.2896,1.2906,1.2915,1.2946,1.2959,1.2806,1.2806,1.2805,1.2805,0,1.2571,1.2611,1.2651,1.2679,1.2701,1.275,1.2743,1.2767,1.2754,1.2754,1.281,1.2823,1.2856,1.2872,1.2861,1.2938,1.2924,1.2898,1.2855,1.2933,1.2962,1.2974,1.2811,1.281,1.2809,1.2808,0,0,1.2708,1.2725,1.274,1.275,1.2769,1.2799,1.2845,1.2876,1.2896,1.2917,1.2954,1.3004,1.2979,1.2997,1.2987,1.3019,1.3094,1.2989,1.2989,1.3006,1.3176,1.3194,1.3208,1.308,1.3082,1.3084,1.3173,0,1.2805,1.2884,1.2871,1.2947,1.2982,1.2951,1.2991,1.3006,1.3006,1.3035,1.3036,1.307,1.3037,1.3046,1.3077,1.3078,1.3128,1.3072,1.3112,1.3114,1.3106,1.3224,1.3244,1.3328,1.3185,1.3187,1.3188,0,1.293,1.2953,1.3031,1.304,1.3055,1.309,1.3115,1.3145,1.316,1.3157,1.3175,1.3159,1.3203,1.3159,1.3218,1.318,1.3196,1.3199,1.3202,1.3204,1.3155,1.3227,1.3354,1.3366,1.3207,1.3205,1.3204,0,1.3018,1.3069,1.3122,1.3132,1.3145,1.317,1.3177,1.319,1.3208,1.323,1.3241,1.3269,1.3283,1.3304,1.3295,1.3264,1.3355,1.3311,1.3353,1.3353,1.3373,1.3371,1.3502,1.3386,1.3386,1.3385,1.3385,0,1.3127,1.3176,1.3161,1.3193,1.3246,1.3231,1.3283,1.3286,1.3297,1.3328,1.3304,1.3334,1.332,1.3349,1.3342,1.339,1.3398,1.3396,1.3393,1.3397,1.3397,1.3406,1.3399,1.3389,1.3388,1.3387,1.3387,0,1.3235,1.3227,1.3282,1.3288,1.3291,1.3329,1.3335,1.3364,1.3361,1.3401,1.3409,1.3405,1.3437,1.343,1.3466,1.346,1.352,1.3511,1.3515,1.3512,1.3553,1.3548,1.3693,1.371,1.3585,1.3586,1.3587,0,1.3304,1.334,1.3349,1.3368,1.3375,1.3406,1.3423,1.3409,1.3428,1.3446,1.3473,1.3502,1.3525,1.3577,1.3577,1.3603,1.3593,1.3642,1.3597,1.3599,1.3591,1.3588,1.3591,1.3651,1.3652,1.3654,1.3655,0,1.3426,1.342,1.3445,1.3469,1.3489,1.3508,1.3524,1.354,1.3526,1.3549,1.358,1.3598,1.3632,1.3661,1.3684,1.369,1.367,1.3668,1.3679,1.3683,1.3682,1.368,1.3537,1.3665,1.3664,1.3663,1.3663,1.3662,1.3515,1.3544,1.3554,1.3582,1.3592,1.3607,1.3633,1.3632,1.3658,1.3684,1.3674,1.3709,1.3721,1.375,1.3759,1.3785,1.3767,1.3783,1.3787,1.379,1.3794,1.3679,1.379,1.379,1.3789,1.3789,1.3789,0,1.3634,1.3638,1.3664,1.3685,1.3707,1.3684,1.37,1.3719,1.375,1.3762,1.3784,1.3818,1.3845,1.3846,1.3871,1.3892,1.3883,1.3899,1.3896,1.3897,1.3811,1.3798,1.3905,1.3905,1.3905,1.3905,1.3905,1.3905,1.3698,1.3745,1.3739,1.379,1.3793,1.3827,1.3837,1.3849,1.3858,1.3897,1.3919,1.3919,1.3926,1.395,1.3973,1.3972,1.3982,1.4001,1.3997,1.3916,1.3904,1.3893,1.388,1.4004,1.4004,1.4081,1.4081,1.4082]}]]